Hourly Data Report for August 21, 2020

LYTTON RCS
BRITISH COLUMBIA
Current Station Operator: ECCC - MSC

50°13'28.000" N
121°34'55.000" W
225.00 m
1114746
71765
VLY

Download Data

Hourly Data (August 2020)
Hourly Data Report for August 21, 2020
TIME Temp Definition
°C
Dew Point Definition
°C
Rel Hum Definition
%
Wind Dir Definition
10's deg

Wind Spd Definition
km/h
Visibility Definition
km
Stn Press Definition
kPa
Hmdx Definition


Wind Chill Definition


Weather Definition


00:00 22.2 12.8 55 20 20   97.85 25   LegendNANA
01:00 21.6 13.5 60 19 21   97.88 25   LegendNANA
02:00 20.5 14.1 67 21 17   97.82     LegendNANA
03:00 20.0 14.1 69 22 25   97.81     LegendNANA
04:00 20.0 14.2 69 21 29   97.79     LegendNANA
05:00 19.0 14.9 77 21 18   97.83     LegendNANA
06:00 19.1 14.7 76 18 17   97.81     LegendNANA
07:00 19.5 14.8 75 21 18   97.78     LegendNANA
08:00 20.6 14.5 68 18 24   97.68     LegendNANA
09:00 23.2 13.9 56 18 32   97.59 27   LegendNANA
10:00 23.2 14.0 56 18 37   97.58 27   LegendNANA
11:00 19.8 15.3 75 18 25   97.72     LegendNANA
12:00 22.2 11.8 52 19 26   97.73     LegendNANA
13:00 23.1 11.3 47 18 33   97.79 25   LegendNANA
14:00 20.0 13.9 68 21 21   98.02     LegendNANA
15:00 19.4 11.5 60 20 25   98.03     LegendNANA
16:00 20.6 13.1 62 19 25   98.02     LegendNANA
17:00 18.3 14.7 79 20 27   98.09     LegendNANA
18:00 17.1 13.7 80 20 26   98.13     LegendNANA
19:00 17.0 12.9 77 19 29   98.15     LegendNANA
20:00 16.8 13.0 78 19 28   98.23     LegendNANA
21:00 16.9 12.9 77 19 23   98.25     LegendNANA
22:00 16.8 12.8 77 20 31   98.24     LegendNANA
23:00 16.9 12.5 75 19 31   98.29     LegendNANA

Notes on Data Quality.

Legend

  • E = Estimated
  • M = Missing
  • NA = Not Available*
  • [empty] = Indicates an unobserved value
Date modified: